Weather in Kotovo

Russia / Volgograd Oblast     50°19′19″N   44°48′04″E
temp.,
°C
wind,
m/s
gust,
m/s
humid.,
%
clouds,
%
prec.,
mm/h
press.,
hPa
HPBL,
m
3 august, tue
tue300:00+26sse35276 0.0 101168
03:00+25s333424 0.0 101129
06:00+27s483593 0.0 1011130
09:00+34s56208 0.0 1011779
12:00+36sw691716 0.0 10103734
15:00+36w7918100 0.0 10092736
18:00+32wnw372882 0.0 1009445
21:00+25n464525 0.0 101088
4 august, wed
wed400:00+22n5117122 0.0 1011245
03:00+20nw41082100 0.3 1013242
06:00+22w41170100 0.3 1012312
09:00+25nw4559100 0.3 1013497
12:00+28n224896 0.0 10131505
15:00+28nw4445100 0.1 10131350
18:00+26n455363 0.0 1013363
21:00+21nnw410700 0.0 1014201
5 august, thu
thu500:00+19n4881100 0.0 1015157
03:00+19nnw368054 0.0 1016145
06:00+19n4873100 0.0 1016207
09:00+25n56454 0.0 10161056
12:00+29n4430100 0.0 10162362
15:00+29nnw54283 0.0 10162506
18:00+28n442946 0.0 10161671
21:00+21nne4844100 0.0 1016138
6 august, fri
fri600:00+20ne49445 0.0 1016154
03:00+18ne47485 0.0 1016114
06:00+19e38530 0.0 1016196
09:00+26ese55354 0.0 1016772
12:00+30ese33265 0.0 10152123
15:00+32ese44225 0.0 10142635
18:00+30ese45265 0.0 1013550
21:00+23ene612365 0.0 1014189
7 august, sat
sat700:00+22e614335 0.0 1014282
03:00+20ese51336100 0.0 1014231
06:00+21ese51237100 0.0 1014273
09:00+28ese6827100 0.0 1014545
12:00+31ese552198 0.0 10141810
15:00+33ese5517100 0.0 10122558
18:00+30e4721100 0.0 1012199
21:00+25e4727100 0.0 1013100